NOZ404 ENGM-ENAL

Flight info

Callsign NOZ404
Flight time 0h 41m
Altitude 34000
Route EVTOG DCT UTRUF DCT UFGUG DCT OBITI
Aircraft B738/M-SDE2E3GHIJ1LRWXY/LB1

Departure

Time 2026-05-04 19:29
Airport Oslo-Gardermoen International Airport (ENGM)

Arrival

Time 2026-05-04 20:11
Airport Ålesund Airport (ENAL)
Time Latitude Longitude Altitude Speed Heading
2026-05-04 18:43 60.19558 11.09505 691 ft 0 kts 196°
2026-05-04 19:14 60.19566 11.09509 690 ft 2 kts 192°
2026-05-04 19:15 60.19581 11.09517 690 ft 2 kts 197°
2026-05-04 19:15 60.19596 11.09526 690 ft 2 kts 195°
2026-05-04 19:15 60.19610 11.09534 690 ft 2 kts 196°
2026-05-04 19:15 60.19625 11.09543 690 ft 2 kts 207°
2026-05-04 19:16 60.19637 11.09563 690 ft 2 kts 229°
2026-05-04 19:16 60.19646 11.09590 690 ft 2 kts 250°
2026-05-04 19:16 60.19649 11.09622 690 ft 2 kts 270°
2026-05-04 19:16 60.19647 11.09653 690 ft 1 kts 290°
2026-05-04 19:17 60.19645 11.09661 690 ft 0 kts 289°
2026-05-04 19:20 60.19645 11.09660 690 ft 1 kts 289°
2026-05-04 19:20 60.19656 11.09598 690 ft 0 kts 294°
2026-05-04 19:21 60.19659 11.09595 690 ft 1 kts 339°
2026-05-04 19:21 60.19712 11.09619 690 ft 13 kts 16°
2026-05-04 19:21 60.19829 11.09684 690 ft 14 kts 15°
2026-05-04 19:21 60.19858 11.09701 690 ft 2 kts 17°
2026-05-04 19:22 60.19891 11.09722 690 ft 8 kts 16°
2026-05-04 19:22 60.19980 11.09762 690 ft 15 kts 351°
2026-05-04 19:22 60.20039 11.09547 690 ft 21 kts 284°
2026-05-04 19:22 60.20084 11.09232 690 ft 18 kts 286°
2026-05-04 19:23 60.20099 11.09104 690 ft 7 kts 282°
2026-05-04 19:23 60.20116 11.08974 690 ft 11 kts 288°
2026-05-04 19:23 60.20192 11.08913 690 ft 14 kts 13°
2026-05-04 19:23 60.20308 11.08973 690 ft 18 kts 18°
2026-05-04 19:24 60.20454 11.09059 690 ft 23 kts 14°
2026-05-04 19:24 60.20599 11.09157 690 ft 18 kts 18°
2026-05-04 19:24 60.20702 11.09244 690 ft 13 kts 17°
2026-05-04 19:24 60.20811 11.09276 690 ft 18 kts
2026-05-04 19:25 60.20976 11.09363 690 ft 28 kts 15°
2026-05-04 19:25 60.21178 11.09481 690 ft 28 kts 15°
2026-05-04 19:25 60.21366 11.09589 690 ft 24 kts 16°
2026-05-04 19:25 60.21502 11.09615 690 ft 15 kts 332°
2026-05-04 19:26 60.21556 11.09422 690 ft 15 kts 290°
2026-05-04 19:26 60.21573 11.09222 690 ft 12 kts 259°
2026-05-04 19:26 60.21524 11.09118 690 ft 4 kts 198°
2026-05-04 19:26 60.21519 11.09115 690 ft 0 kts 198°
2026-05-04 19:27 60.21515 11.09112 690 ft 1 kts 195°
2026-05-04 19:27 60.21514 11.09112 690 ft 0 kts 194°
2026-05-04 19:28 60.21506 11.09107 690 ft 9 kts 194°
2026-05-04 19:28 60.21145 11.08888 690 ft 98 kts 197°
2026-05-04 19:29 60.20194 11.08347 700 ft 172 kts 199°
2026-05-04 19:29 60.18886 11.07625 1076 ft 206 kts 195°
2026-05-04 19:29 60.17535 11.06685 2341 ft 197 kts 208°
2026-05-04 19:29 60.16376 11.05008 3031 ft 210 kts 237°
2026-05-04 19:30 60.15733 11.02186 3738 ft 224 kts 250°
2026-05-04 19:30 60.15057 10.99178 4526 ft 239 kts 246°
2026-05-04 19:30 60.14316 10.95935 5249 ft 255 kts 251°
2026-05-04 19:30 60.14024 10.92348 6387 ft 254 kts 266°
2026-05-04 19:31 60.13929 10.88725 7049 ft 259 kts 267°
2026-05-04 19:31 60.13795 10.84951 6744 ft 260 kts 265°
2026-05-04 19:31 60.13665 10.81336 6727 ft 245 kts 266°
2026-05-04 19:31 60.13553 10.77842 6725 ft 246 kts 267°
2026-05-04 19:32 60.13446 10.74279 6722 ft 247 kts 270°
2026-05-04 19:32 60.13837 10.70872 6725 ft 250 kts 298°
2026-05-04 19:32 60.15264 10.68417 7090 ft 282 kts 333°
2026-05-04 19:32 60.17107 10.67116 8298 ft 276 kts 332°
2026-05-04 19:33 60.18864 10.65217 9022 ft 283 kts 322°
2026-05-04 19:33 60.20603 10.63134 9907 ft 289 kts 324°
2026-05-04 19:33 60.22494 10.60985 10258 ft 315 kts 325°
2026-05-04 19:33 60.24538 10.58687 10545 ft 340 kts 325°
2026-05-04 19:34 60.26734 10.56231 11142 ft 353 kts 326°
2026-05-04 19:34 60.29004 10.53694 11841 ft 363 kts 326°
2026-05-04 19:34 60.31338 10.51079 12613 ft 369 kts 326°
2026-05-04 19:34 60.33675 10.48462 13430 ft 373 kts 325°
2026-05-04 19:35 60.36001 10.45848 14177 ft 378 kts 325°
2026-05-04 19:35 60.38380 10.43171 14938 ft 382 kts 325°
2026-05-04 19:35 60.40773 10.40474 15657 ft 386 kts 325°
2026-05-04 19:35 60.43169 10.37768 16353 ft 390 kts 325°
2026-05-04 19:36 60.45613 10.34999 16601 ft 398 kts 325°
2026-05-04 19:36 60.46453 10.34047 16597 ft 396 kts 324°
2026-05-04 19:36 60.48373 10.31881 16634 ft 391 kts 324°
2026-05-04 19:36 60.50843 10.29081 16627 ft 393 kts 324°
2026-05-04 19:37 60.53352 10.26217 17114 ft 402 kts 324°
2026-05-04 19:37 60.55857 10.23368 17951 ft 401 kts 324°
2026-05-04 19:37 60.58351 10.20521 18615 ft 404 kts 324°
2026-05-04 19:37 60.60862 10.17650 19296 ft 406 kts 324°
2026-05-04 19:38 60.63381 10.14762 19883 ft 409 kts 324°
2026-05-04 19:38 60.65956 10.11806 20480 ft 413 kts 324°
2026-05-04 19:38 60.68521 10.08855 21042 ft 416 kts 324°
2026-05-04 19:38 60.71083 10.05904 21583 ft 420 kts 324°
2026-05-04 19:39 60.73728 10.02851 22119 ft 423 kts 324°
2026-05-04 19:39 60.76391 9.99772 22639 ft 426 kts 324°
2026-05-04 19:39 60.78941 9.96603 23602 ft 408 kts 319°
2026-05-04 19:39 60.81227 9.93168 24536 ft 389 kts 313°
2026-05-04 19:40 60.83219 9.89396 25369 ft 368 kts 303°
2026-05-04 19:40 60.84815 9.85387 26373 ft 345 kts 299°
2026-05-04 19:40 60.86343 9.81438 26860 ft 344 kts 300°
2026-05-04 19:40 60.87913 9.77485 27310 ft 343 kts 300°
2026-05-04 19:41 60.89457 9.73564 27668 ft 343 kts 300°
2026-05-04 19:41 60.91014 9.69558 28004 ft 344 kts 300°
2026-05-04 19:41 60.92564 9.65556 28320 ft 346 kts 300°
2026-05-04 19:41 60.94110 9.61561 28621 ft 348 kts 299°
2026-05-04 19:42 60.95671 9.57513 28919 ft 349 kts 299°
2026-05-04 19:42 60.97234 9.53448 29206 ft 351 kts 299°
2026-05-04 19:42 60.98825 9.49304 29489 ft 353 kts 299°
2026-05-04 19:42 61.00394 9.45205 29760 ft 354 kts 299°
2026-05-04 19:43 61.02003 9.40996 30030 ft 356 kts 299°
2026-05-04 19:43 61.03593 9.36827 30289 ft 357 kts 299°
2026-05-04 19:43 61.05233 9.32693 30564 ft 362 kts 302°
2026-05-04 19:43 61.07042 9.28765 30822 ft 366 kts 305°
2026-05-04 19:44 61.08866 9.24910 31070 ft 367 kts 304°
2026-05-04 19:44 61.10675 9.20977 31310 ft 368 kts 304°
2026-05-04 19:44 61.12464 9.17060 31526 ft 369 kts 304°
2026-05-04 19:44 61.14280 9.13095 31744 ft 370 kts 304°
2026-05-04 19:45 61.16104 9.09108 31951 ft 372 kts 304°
2026-05-04 19:45 61.17940 9.05081 32145 ft 373 kts 304°
2026-05-04 19:45 61.19767 9.01067 32336 ft 375 kts 304°
2026-05-04 19:45 61.21600 8.97031 32521 ft 376 kts 304°
2026-05-04 19:46 61.23447 8.92960 32702 ft 377 kts 304°
2026-05-04 19:46 61.25202 8.89081 32870 ft 379 kts 304°
2026-05-04 19:46 61.27005 8.85090 33043 ft 380 kts 304°
2026-05-04 19:46 61.28838 8.81046 33196 ft 383 kts 305°
2026-05-04 19:47 61.30750 8.76900 33264 ft 390 kts 304°
2026-05-04 19:47 61.34555 8.68358 33382 ft 403 kts 304°
2026-05-04 19:48 61.38489 8.59529 33494 ft 416 kts 305°
2026-05-04 19:48 61.42529 8.50455 33807 ft 421 kts 305°
2026-05-04 19:48 61.44539 8.45928 33989 ft 422 kts 305°
2026-05-04 19:49 61.46570 8.41341 34000 ft 425 kts 305°
2026-05-04 19:49 61.50633 8.32148 33999 ft 422 kts 304°
2026-05-04 19:50 61.54671 8.22970 34000 ft 420 kts 304°
2026-05-04 19:50 61.58705 8.13755 34000 ft 420 kts 304°
2026-05-04 19:51 61.62740 8.04507 34000 ft 421 kts 304°
2026-05-04 19:51 61.66914 7.95513 34000 ft 427 kts 310°
2026-05-04 19:52 61.71457 7.87348 33759 ft 421 kts 311°
2026-05-04 19:52 61.73619 7.83374 32806 ft 417 kts 310°
2026-05-04 19:52 61.75775 7.79375 32063 ft 408 kts 310°
2026-05-04 19:52 61.77893 7.75453 31165 ft 404 kts 310°
2026-05-04 19:53 61.80002 7.71548 30326 ft 398 kts 310°
2026-05-04 19:53 61.82069 7.67713 29482 ft 393 kts 310°
2026-05-04 19:53 61.84129 7.63880 28638 ft 388 kts 310°
2026-05-04 19:53 61.86105 7.60198 27821 ft 383 kts 310°
2026-05-04 19:54 61.88056 7.56554 27007 ft 378 kts 310°
2026-05-04 19:54 61.90041 7.52842 26173 ft 373 kts 310°
2026-05-04 19:54 61.92044 7.49090 25325 ft 369 kts 310°
2026-05-04 19:54 61.93988 7.45442 24516 ft 364 kts 310°
2026-05-04 19:55 61.95939 7.41773 23689 ft 359 kts 310°
2026-05-04 19:55 61.97839 7.38195 22892 ft 354 kts 310°
2026-05-04 19:55 61.99694 7.34623 22096 ft 347 kts 307°
2026-05-04 19:55 62.01339 7.30772 21328 ft 336 kts 300°
2026-05-04 19:56 62.02819 7.26853 20557 ft 331 kts 300°
2026-05-04 19:56 62.04330 7.22912 19772 ft 327 kts 301°
2026-05-04 19:56 62.05794 7.19102 19013 ft 323 kts 300°
2026-05-04 19:56 62.07242 7.15288 18261 ft 318 kts 300°
2026-05-04 19:57 62.08665 7.11526 17512 ft 314 kts 300°
2026-05-04 19:57 62.10077 7.07779 16755 ft 311 kts 300°
2026-05-04 19:57 62.11459 7.04097 16004 ft 306 kts 300°
2026-05-04 19:57 62.12812 7.00488 15490 ft 295 kts 300°
2026-05-04 19:58 62.14183 6.97020 15037 ft 302 kts 306°
2026-05-04 19:58 62.15748 6.93764 14590 ft 300 kts 308°
2026-05-04 19:58 62.17285 6.90592 14177 ft 294 kts 307°
2026-05-04 19:58 62.18808 6.87352 13762 ft 300 kts 307°
2026-05-04 19:59 62.20314 6.84193 13342 ft 288 kts 307°
2026-05-04 19:59 62.21789 6.81068 12953 ft 296 kts 307°
2026-05-04 19:59 62.23301 6.77867 12530 ft 296 kts 308°
2026-05-04 19:59 62.24813 6.74673 12117 ft 292 kts 308°
2026-05-04 20:00 62.26290 6.71540 11712 ft 288 kts 308°
2026-05-04 20:00 62.27743 6.68453 11312 ft 285 kts 308°
2026-05-04 20:00 62.29180 6.65393 10916 ft 284 kts 308°
2026-05-04 20:00 62.30662 6.62234 10501 ft 284 kts 308°
2026-05-04 20:01 62.32098 6.59173 10102 ft 281 kts 308°
2026-05-04 20:01 62.33684 6.56465 9847 ft 281 kts 327°
2026-05-04 20:01 62.35629 6.55314 9541 ft 291 kts 355°
2026-05-04 20:01 62.37693 6.56165 9157 ft 297 kts 21°
2026-05-04 20:02 62.39624 6.58038 8768 ft 295 kts 23°
2026-05-04 20:02 62.41562 6.59847 8385 ft 293 kts 21°
2026-05-04 20:02 62.43476 6.61630 8012 ft 290 kts 22°
2026-05-04 20:02 62.45373 6.63450 7690 ft 285 kts 24°
2026-05-04 20:03 62.47188 6.65407 7388 ft 283 kts 25°
2026-05-04 20:03 62.49038 6.67436 7027 ft 285 kts 25°
2026-05-04 20:03 62.50851 6.69401 6664 ft 282 kts 24°
2026-05-04 20:03 62.52655 6.71358 6289 ft 280 kts 25°
2026-05-04 20:04 62.54417 6.73256 5990 ft 274 kts 21°
2026-05-04 20:04 62.56250 6.74123 5891 ft 251 kts 351°
2026-05-04 20:04 62.57864 6.73001 5730 ft 230 kts 323°
2026-05-04 20:04 62.59119 6.70790 5355 ft 222 kts 302°
2026-05-04 20:05 62.59845 6.67940 5237 ft 204 kts 290°
2026-05-04 20:05 62.60481 6.65178 5061 ft 196 kts 291°
2026-05-04 20:05 62.61099 6.62514 4885 ft 188 kts 290°
2026-05-04 20:05 62.61704 6.59860 4501 ft 192 kts 291°
2026-05-04 20:06 62.62317 6.57195 4268 ft 187 kts 291°
2026-05-04 20:06 62.62919 6.54565 3949 ft 188 kts 291°
2026-05-04 20:06 62.63520 6.51931 3612 ft 189 kts 292°
2026-05-04 20:06 62.63990 6.49227 3449 ft 181 kts 271°
2026-05-04 20:07 62.63737 6.46471 3269 ft 177 kts 241°
2026-05-04 20:07 62.63169 6.44005 3099 ft 178 kts 244°
2026-05-04 20:07 62.62650 6.41497 2990 ft 174 kts 244°
2026-05-04 20:07 62.62114 6.39029 2986 ft 168 kts 242°
2026-05-04 20:08 62.61623 6.36759 2995 ft 155 kts 243°
2026-05-04 20:08 62.61150 6.34569 2940 ft 156 kts 242°
2026-05-04 20:08 62.60638 6.32217 2340 ft 173 kts 243°
2026-05-04 20:08 62.60101 6.29743 1888 ft 173 kts 243°
2026-05-04 20:09 62.59597 6.27412 1734 ft 160 kts 243°
2026-05-04 20:09 62.59111 6.25181 1327 ft 154 kts 243°
2026-05-04 20:09 62.58652 6.23088 1004 ft 146 kts 241°
2026-05-04 20:09 62.58183 6.21068 606 ft 141 kts 244°
2026-05-04 20:10 62.57791 6.19057 363 ft 136 kts 246°
2026-05-04 20:10 62.57418 6.17056 242 ft 149 kts 243°
2026-05-04 20:10 62.56912 6.15109 237 ft 139 kts 242°
2026-05-04 20:10 62.56438 6.12923 165 ft 155 kts 244°
2026-05-04 20:11 62.55998 6.10921 68 ft 110 kts 248°
2026-05-04 20:11 62.55811 6.09991 54 ft 25 kts 245°
2026-05-04 20:11 62.55735 6.09633 43 ft 28 kts 246°
2026-05-04 20:11 62.55648 6.09214 30 ft 23 kts 235°
2026-05-04 20:12 62.55583 6.09026 26 ft 12 kts 140°
2026-05-04 20:12 62.55619 6.09186 29 ft 14 kts 49°
2026-05-04 20:12 62.55688 6.09385 35 ft 15 kts 61°
2026-05-04 20:12 62.55734 6.09628 43 ft 20 kts 66°
2026-05-04 20:13 62.55826 6.10056 56 ft 37 kts 63°
2026-05-04 20:13 62.55940 6.10650 67 ft 31 kts 90°
2026-05-04 20:13 62.55901 6.11052 68 ft 17 kts 104°
2026-05-04 20:13 62.55924 6.11252 72 ft 6 kts 66°
2026-05-04 20:14 62.55936 6.11317 72 ft 6 kts 66°
2026-05-04 20:14 62.55949 6.11431 72 ft 5 kts 127°
2026-05-04 20:14 62.55930 6.11453 71 ft 2 kts 153°
2026-05-04 20:14 62.55917 6.11467 71 ft 1 kts 153°
2026-05-04 20:15 62.55912 6.11473 71 ft 0 kts 154°